GW1622 Weather Reports


Display with metric or nautical units.
time (UTC)temp
F
wind
direction
speed
MPH
gust
MPH
rain 1hr
in
rain 24hr
in
rain mn
in
humidity
%
barometer
mb
20260503005515 63 0 0.0 8.0 0.00 0.00 0.00 83 1012.0
20260503005016 63 5 1.0 8.0 0.00 0.00 0.00 82 1011.9
20260503004559 63 333 2.0 8.0 0.00 0.00 0.00 82 1011.8
20260503004016 63 0 0.0 6.0 0.00 0.00 0.00 82 1011.9
20260503003515 63 0 1.0 7.0 0.00 0.00 0.00 82 1011.8
20260503003034 63 28 1.0 7.0 0.00 0.00 0.00 81 1012.0
20260503002515 64 46 1.0 5.0 0.00 0.00 0.00 81 1011.9
20260503002014 64 0 1.0 5.0 0.00 0.00 0.00 81 1011.9
20260503001548 64 23 0.0 5.0 0.00 0.00 0.00 80 1012.1
20260503001016 64 349 0.0 4.0 0.00 0.00 0.00 81 1012.0
20260503000517 64 13 1.0 4.0 0.00 0.00 0.00 80 1012.0
20260503000035 64 32 1.0 4.0 0.00 0.00 0.00 79 1012.1
20260502235514 65 82 0.0 3.0 0.00 0.00 0.00 79 1011.9
20260502235016 65 333 0.0 2.0 0.00 0.00 0.00 80 1011.9
20260502234539 65 0 0.0 5.0 0.00 0.00 0.00 79 1012.0
20260502234016 64 185 0.0 5.0 0.00 0.00 0.00 80 1012.2
20260502233519 65 0 0.0 5.0 0.00 0.00 0.00 79 1012.1
20260502233032 65 23 1.0 5.0 0.00 0.00 0.00 79 1012.1
20260502232517 66 333 0.0 4.0 0.00 0.00 0.00 78 1012.1
20260502232016 66 293 1.0 3.0 0.00 0.00 0.00 79 1012.1
20260502231530 66 0 0.0 8.0 0.00 0.00 0.00 78 1012.2
20260502231016 66 0 0.0 8.0 0.00 0.00 0.00 78 1012.1
20260502230515 66 330 1.0 8.0 0.00 0.00 0.00 78 1012.0
20260502230035 66 345 1.0 4.0 0.00 0.00 0.00 79 1012.1
20260502225514 65 0 0.0 4.0 0.00 0.00 0.00 79 1012.2
20260502225020 66 71 0.0 9.0 0.00 0.00 0.00 79 1012.4
20260502224533 65 0 1.0 9.0 0.00 0.00 0.00 79 1012.4
20260502224016 66 352 1.0 5.0 0.00 0.00 0.00 79 1012.5
20260502223518 66 5 1.0 5.0 0.00 0.00 0.00 78 1012.5
20260502223034 66 113 0.0 5.0 0.00 0.00 0.00 78 1012.7
20260502222517 67 78 0.0 5.0 0.00 0.00 0.00 78 1012.8
20260502222014 67 37 1.0 5.0 0.00 0.00 0.00 77 1012.9
20260502221539 67 0 1.0 4.0 0.00 0.00 0.00 77 1013.0
20260502221014 67 35 1.0 5.0 0.00 0.00 0.00 78 1013.0
20260502220515 67 5 1.0 8.0 0.00 0.00 0.00 78 1013.2
20260502220035 67 346 3.0 8.0 0.00 0.00 0.00 78 1013.2
20260502215516 67 329 1.0 5.0 0.00 0.00 0.00 77 1013.3
20260502215015 67 86 1.0 4.0 0.00 0.00 0.00 77 1013.4
20260502214534 67 5 1.0 8.0 0.00 0.00 0.00 77 1013.4
20260502214017 67 323 2.0 8.0 0.00 0.00 0.00 77 1013.3
20260502213516 68 352 2.0 8.0 0.00 0.00 0.00 76 1013.3
20260502213030 68 103 2.0 8.0 0.00 0.00 0.00 76 1013.4
20260502212518 68 334 1.0 8.0 0.00 0.00 0.00 76 1013.5
20260502212016 67 0 1.0 9.0 0.00 0.00 0.00 78 1013.6
20260502211533 67 11 1.0 9.0 0.00 0.00 0.00 78 1013.5
20260502211018 67 125 1.0 6.0 0.00 0.00 0.00 78 1013.6
20260502210513 68 345 3.0 6.0 0.00 0.00 0.00 77 1013.5
20260502210033 68 82 1.0 10.0 0.00 0.00 0.00 76 1013.6
20260502205520 68 15 3.0 10.0 0.00 0.00 0.00 75 1013.8
20260502205016 69 321 1.0 8.0 0.00 0.00 0.00 76 1013.6
20260502204534 69 188 1.0 8.0 0.00 0.00 0.00 76 1013.6
20260502204018 68 51 2.0 8.0 0.00 0.00 0.00 77 1013.5
20260502203515 68 0 1.0 4.0 0.00 0.00 0.00 78 1013.7
20260502203031 68 53 1.0 4.0 0.00 0.00 0.00 78 1013.6
20260502202516 67 351 2.0 6.0 0.00 0.00 0.00 78 1013.7
20260502202015 68 178 1.0 6.0 0.00 0.00 0.00 76 1013.7
20260502201539 68 254 1.0 6.0 0.00 0.00 0.00 78 1013.5
20260502201016 68 0 1.0 8.0 0.00 0.00 0.00 77 1013.6
20260502200518 68 27 1.0 8.0 0.00 0.00 0.00 78 1013.5
20260502200031 68 351 1.0 8.0 0.00 0.00 0.00 78 1013.6
20260502195515 69 90 2.0 8.0 0.00 0.00 0.00 75 1013.8
20260502195015 69 352 2.0 9.0 0.00 0.00 0.00 77 1013.8
20260502194530 67 0 1.0 9.0 0.00 0.00 0.00 81 1013.9
20260502194016 67 26 2.0 7.0 0.00 0.00 0.00 79 1014.0
20260502193513 67 94 2.0 7.0 0.00 0.00 0.00 79 1014.0
20260502193032 68 47 1.0 3.0 0.00 0.00 0.00 79 1013.8
20260502192516 68 80 0.0 5.0 0.00 0.00 0.00 80 1013.9
20260502192015 67 350 2.0 8.0 0.00 0.00 0.00 82 1014.0
20260502191531 66 84 1.0 8.0 0.00 0.00 0.00 81 1014.2
20260502191015 66 67 2.0 7.0 0.00 0.00 0.00 83 1014.4
20260502190516 66 87 1.0 6.0 0.00 0.00 0.00 83 1014.5
20260502190038 65 352 1.0 6.0 0.00 0.00 0.00 84 1014.7
20260502185515 65 233 1.0 5.0 0.00 0.00 0.00 85 1014.9
20260502185015 65 0 1.0 5.0 0.00 0.00 0.00 85 1014.7
20260502184545 65 48 1.0 5.0 0.00 0.00 0.00 86 1014.7
20260502184016 64 86 0.0 4.0 0.00 0.00 0.00 86 1014.8
20260502183516 64 254 1.0 4.0 0.00 0.00 0.00 86 1014.7
20260502183040 64 132 0.0 3.0 0.00 0.00 0.00 87 1014.9
20260502182517 64 136 0.0 3.0 0.00 0.00 0.00 87 1015.0
20260502182015 63 28 1.0 4.0 0.00 0.00 0.00 87 1015.1
20260502181541 63 86 0.0 4.0 0.00 0.00 0.00 87 1015.3
20260502181014 63 34 1.0 4.0 0.00 0.00 0.00 86 1015.3
20260502180515 64 0 0.0 3.0 0.00 0.00 0.00 87 1015.3
20260502170515 64 19 1.0 4.0 0.00 0.00 0.00 86 1015.6
20260502164015 63 0 0.0 3.0 0.00 0.00 0.00 87 1015.6
20260502163515 63 20 0.0 3.0 0.00 0.00 0.00 87 1015.5
20260502163032 62 331 0.0 3.0 0.00 0.00 0.00 87 1015.6
20260502162514 62 0 0.0 1.0 0.00 0.00 0.00 88 1015.6
20260502162015 62 0 0.0 1.0 0.00 0.00 0.00 88 1015.4
20260502161534 62 317 0.0 2.0 0.00 0.00 0.00 88 1015.4
20260502161016 62 0 0.0 2.0 0.00 0.00 0.00 88 1015.5
20260502160520 62 0 0.0 2.0 0.00 0.00 0.00 88 1015.5
20260502152016 62 0 0.0 0.0 0.00 0.00 0.00 89 1015.4
20260502151534 61 0 0.0 1.0 0.00 0.00 0.00 89 1015.4
20260502151015 61 0 0.0 1.0 0.00 0.00 0.00 89 1015.4
20260502150515 61 0 0.0 1.0 0.00 0.00 0.00 89 1015.3
20260502130515 61 0 0.0 1.0 0.00 0.00 0.00 89 1014.6
20260502123514 61 183 0.0 1.0 0.00 0.00 0.00 88 1014.5
20260502123036 61 0 0.0 1.0 0.00 0.00 0.00 88 1014.5
20260502122514 61 0 0.0 1.0 0.00 0.00 0.00 88 1014.4
20260502122014 61 0 0.0 1.0 0.00 0.00 0.00 88 1014.4
20260502121541 61 0 0.0 1.0 0.00 0.00 0.00 88 1014.4
20260502121016 61 183 0.0 1.0 0.00 0.00 0.00 88 1014.4
20260502120515 61 0 0.0 2.0 0.00 0.00 0.00 88 1014.3
20260502115515 61 0 0.0 2.0 0.00 0.00 0.00 88 1014.2
20260502115013 61 0 0.0 2.0 0.00 0.00 0.00 88 1014.3
20260502114532 61 146 0.0 2.0 0.00 0.00 0.00 88 1014.2
20260502114015 61 0 0.0 1.0 0.00 0.00 0.00 88 1014.1
20260502113515 61 0 0.0 1.0 0.00 0.00 0.00 88 1014.1
20260502113033 61 0 0.0 1.0 0.00 0.00 0.00 88 1014.1
20260502112512 61 0 0.0 1.0 0.00 0.00 0.00 88 1014.1
20260502112016 61 0 0.0 1.0 0.00 0.00 0.00 88 1014.2
20260502111530 61 0 0.0 1.0 0.00 0.00 0.00 88 1014.0
20260502111015 61 0 0.0 1.0 0.00 0.00 0.00 88 1014.0
20260502110515 61 0 0.0 1.0 0.00 0.00 0.00 88 1014.1
20260502110032 61 0 0.0 0.0 0.00 0.00 0.00 88 1014.1
20260502105516 61 0 0.0 0.0 0.00 0.00 0.00 87 1014.1
20260502105015 61 0 0.0 1.0 0.00 0.00 0.00 87 1014.1
20260502104531 61 0 0.0 1.0 0.00 0.00 0.00 87 1014.1
20260502104012 61 0 0.0 1.0 0.00 0.00 0.00 87 1014.1
20260502103515 61 0 0.0 1.0 0.00 0.00 0.00 87 1014.0
20260502103038 61 0 0.0 1.0 0.00 0.00 0.00 87 1014.0
20260502102515 61 0 0.0 2.0 0.00 0.00 0.00 87 1014.1
20260502102015 61 0 0.0 2.0 0.00 0.00 0.00 87 1014.1
20260502101543 61 146 1.0 2.0 0.00 0.00 0.00 87 1014.1
20260502101015 61 0 0.0 1.0 0.00 0.00 0.00 87 1014.0
20260502100520 61 0 0.0 2.0 0.00 0.00 0.00 87 1014.0
20260502091533 62 0 0.0 1.0 0.00 0.00 0.00 86 1014.0
20260502091018 62 0 0.0 1.0 0.00 0.00 0.00 86 1014.0
20260502090518 62 0 0.0 1.0 0.00 0.00 0.00 86 1014.0
20260502071016 62 0 0.0 1.0 0.00 0.00 0.00 85 1014.9
20260502070517 62 0 0.0 1.0 0.00 0.00 0.00 85 1014.7
20260502070037 62 0 0.0 1.0 0.00 0.00 0.00 85 1014.7
20260502065515 62 0 0.0 1.0 0.00 0.00 0.00 85 1014.7
20260502065015 62 342 0.0 1.0 0.00 0.00 0.00 85 1014.8
20260502064535 62 0 0.0 2.0 0.00 0.00 0.00 85 1014.7
20260502064015 62 342 0.0 2.0 0.00 0.00 0.00 85 1014.7
20260502063515 62 5 0.0 2.0 0.00 0.00 0.00 85 1014.7
20260502063034 62 0 0.0 2.0 0.00 0.00 0.00 85 1014.7
20260502062516 62 13 0.0 2.0 0.00 0.00 0.00 85 1014.7
20260502062018 62 0 0.0 2.0 0.00 0.00 0.00 85 1014.6
20260502061534 62 0 0.0 2.0 0.00 0.00 0.00 85 1014.6
20260502061016 62 0 0.0 1.0 0.00 0.00 0.00 85 1014.7
20260502060517 62 0 0.0 2.0 0.00 0.00 0.00 85 1014.7
20260502060035 62 0 0.0 2.0 0.00 0.00 0.00 85 1014.8
20260502055515 62 0 0.0 2.0 0.00 0.00 0.00 85 1014.8
20260502055019 62 0 0.0 3.0 0.00 0.00 0.00 85 1014.7
20260502054537 62 0 0.0 3.0 0.00 0.00 0.00 85 1014.8
20260502054015 62 0 0.0 1.0 0.00 0.00 0.00 85 1014.7
20260502053515 62 5 0.0 1.0 0.00 0.00 0.00 85 1014.7
20260502053036 62 0 0.0 2.0 0.00 0.00 0.00 85 1014.7
20260502052517 62 0 0.0 3.0 0.00 0.00 0.00 85 1014.8
20260502052015 62 0 0.0 3.0 0.00 0.00 0.00 85 1014.7
20260502051543 62 0 0.0 1.0 0.00 0.00 0.00 85 1014.6
20260502051014 62 0 0.0 1.0 0.00 0.00 0.00 85 1014.8
20260502050521 62 0 0.0 2.0 0.00 0.00 0.00 85 1014.7
20260502050038 62 0 0.0 2.0 0.00 0.00 0.00 85 1014.8
20260502045518 62 0 0.0 1.0 0.00 0.00 0.00 85 1014.6
20260502045022 62 0 0.0 1.0 0.00 0.00 0.00 85 1014.7
20260502044538 62 42 0.0 1.0 0.00 0.00 0.00 85 1014.6
20260502044022 62 0 0.0 2.0 0.00 0.00 0.00 85 1014.6
20260502043514 62 0 0.0 2.0 0.00 0.00 0.00 84 1014.5
20260502043034 62 0 0.0 2.0 0.00 0.00 0.00 84 1014.6
20260502042517 62 0 0.0 3.0 0.00 0.00 0.00 84 1014.5
20260502042021 62 0 0.0 3.0 0.00 0.00 0.00 84 1014.5
20260502041559 62 17 0.0 2.0 0.00 0.00 0.00 84 1014.6
20260502041017 62 0 0.0 2.0 0.00 0.00 0.00 84 1014.5
20260502040515 62 0 0.0 1.0 0.00 0.00 0.00 84 1014.4
20260502040032 62 0 0.0 1.0 0.00 0.00 0.00 84 1014.4
20260502035515 62 0 0.0 2.0 0.00 0.00 0.00 84 1014.4
20260502035018 62 0 0.0 2.0 0.00 0.00 0.00 84 1014.3
20260502034534 62 345 0.0 1.0 0.00 0.00 0.00 83 1014.3
20260502034019 62 0 0.0 1.0 0.00 0.00 0.00 83 1014.2
20260502033517 62 0 0.0 1.0 0.00 0.00 0.00 83 1014.1
20260502033036 62 0 0.0 2.0 0.00 0.00 0.00 83 1014.0
20260502032518 62 0 0.0 2.0 0.00 0.00 0.00 84 1014.0
20260502032016 62 0 0.0 2.0 0.00 0.00 0.00 84 1013.9
20260502031532 62 44 0.0 2.0 0.00 0.00 0.00 84 1014.0
20260502031014 62 0 0.0 2.0 0.00 0.00 0.00 84 1013.8
20260502030519 62 0 0.0 2.0 0.00 0.00 0.00 84 1013.9
20260502030034 62 0 0.0 1.0 0.00 0.00 0.00 84 1013.9
20260502025515 62 0 0.0 1.0 0.00 0.00 0.00 84 1013.9
20260502025018 62 0 0.0 1.0 0.00 0.00 0.00 84 1013.9
20260502024534 61 0 0.0 0.0 0.00 0.00 0.00 84 1013.7
20260502024016 61 0 0.0 2.0 0.00 0.00 0.00 84 1013.6
20260502023515 62 0 0.0 2.0 0.00 0.00 0.00 84 1013.5
20260502023031 61 0 0.0 1.0 0.00 0.00 0.00 84 1013.3
20260502022517 62 0 0.0 1.0 0.00 0.00 0.00 84 1013.3
20260502022019 62 0 0.0 1.0 0.00 0.00 0.00 83 1013.2
20260502021532 62 0 0.0 2.0 0.00 0.00 0.00 83 1013.2
20260502021019 62 335 0.0 2.0 0.00 0.00 0.00 83 1013.3
20260502020515 62 352 0.0 2.0 0.00 0.00 0.00 82 1013.2
20260502020037 62 0 0.0 2.0 0.00 0.00 0.00 82 1013.2
20260502015515 62 98 0.0 2.0 0.00 0.00 0.00 82 1013.2
20260502015017 63 0 0.0 2.0 0.00 0.00 0.00 81 1013.3
20260502014534 63 5 0.0 4.0 0.00 0.00 0.00 82 1013.2
20260502014016 63 13 0.0 4.0 0.00 0.00 0.00 81 1013.2
20260502013515 63 321 1.0 4.0 0.00 0.00 0.00 81 1013.3
20260502013032 63 0 0.0 4.0 0.00 0.00 0.00 80 1013.3
20260502012521 64 36 0.0 4.0 0.00 0.00 0.00 80 1013.0
20260502012014 64 0 0.0 4.0 0.00 0.00 0.00 80 1012.9
20260502011531 64 0 1.0 6.0 0.00 0.00 0.00 79 1012.9
20260502011014 64 92 1.0 6.0 0.00 0.00 0.00 79 1012.9
20260502010517 64 72 1.0 6.0 0.00 0.00 0.00 79 1013.1
20260502010030 64 36 0.0 4.0 0.00 0.00 0.00 79 1013.0